SR9WXM Weather Reports


Display with metric or nautical units.
time (UTC)temp
F
wind
direction
speed
MPH
gust
MPH
rain 1hr
in
rain 24hr
in
rain mn
in
humidity
%
barometer
mb
20260904003257 55 120 9.0 13.0 0.00 0.00 0.00 100
20260904003057 55 115 8.0 12.0 0.00 0.00 0.00 100
20260904002857 55 114 9.0 13.0 0.00 0.00 0.00 100
20260904002655 54 115 10.0 14.0 0.00 0.00 0.00 100
20260904002455 54 120 7.0 11.0 0.00 0.00 0.00 100
20260904002255 54 123 6.0 10.0 0.00 0.00 0.00 100
20260904002055 54 127 7.0 10.0 0.00 0.00 0.00 100
20260904001855 55 122 7.0 10.0 0.00 0.00 0.00 100
20260904001655 55 121 7.0 10.0 0.00 0.00 0.00 100
20260904001455 55 132 9.0 11.0 0.00 0.00 0.00 100
20260904001255 55 136 7.0 10.0 0.00 0.00 0.00 100
20260904001056 55 126 7.0 10.0 0.00 0.00 0.00 100
20260904000856 55 119 8.0 12.0 0.00 0.00 0.00 100
20260904000654 55 128 8.0 12.0 0.00 0.00 0.00 100
20260904000455 55 116 8.0 11.0 0.00 0.00 0.00 100
20260904000255 55 93 7.0 11.0 0.00 0.00 0.00 100
20260904000054 54 126 9.0 12.0 0.00 0.00 0.00 100
20260903235854 55 113 9.0 12.0 0.00 0.00 0.00 100
20260903235654 55 97 8.0 12.0 0.00 0.00 0.00 100
20260903235454 55 130 9.0 12.0 0.00 0.00 0.00 100
20260903235254 55 143 9.0 13.0 0.00 0.00 0.00 100
20260903235054 55 144 8.0 11.0 0.00 0.00 0.00 100
20260903234854 55 132 8.0 11.0 0.00 0.00 0.00 100
20260903234652 55 112 8.0 11.0 0.00 0.00 0.00 100
20260903234451 55 103 8.0 12.0 0.00 0.00 0.00 100
20260903234251 55 102 9.0 12.0 0.00 0.00 0.00 100
20260903234051 55 133 8.0 12.0 0.00 0.00 0.00 100
20260903233851 55 158 8.0 11.0 0.00 0.00 0.00 100
20260903233651 55 139 9.0 13.0 0.00 0.00 0.00 100
20260903233451 55 137 8.0 13.0 0.00 0.00 0.00 100
20260903233251 55 145 9.0 14.0 0.00 0.00 0.00 100
20260903233052 56 136 8.0 11.0 0.00 0.00 0.00 100
20260903232852 56 144 9.0 17.0 0.00 0.00 0.00 100
20260903232650 56 132 8.0 17.0 0.00 0.00 0.00 100
20260903232449 56 159 8.0 14.0 0.00 0.00 0.00 100
20260903232249 56 122 8.0 11.0 0.00 0.00 0.00 100
20260903232049 56 134 9.0 11.0 0.00 0.00 0.00 100
20260903231849 56 136 8.0 11.0 0.00 0.00 0.00 100
20260903231649 56 138 9.0 12.0 0.00 0.00 0.00 100
20260903231449 56 149 10.0 18.0 0.00 0.00 0.00 100
20260903231249 56 135 8.0 12.0 0.00 0.00 0.00 100
20260903231049 57 143 8.0 10.0 0.00 0.00 0.00 100
20260903230849 57 186 9.0 16.0 0.00 0.00 0.00 100
20260903230647 57 139 10.0 18.0 0.00 0.00 0.00 100
20260903230447 57 178 12.0 18.0 0.00 0.00 0.00 100
20260903230247 57 170 11.0 16.0 0.00 0.00 0.00 100
20260903230046 57 164 9.0 14.0 0.00 0.00 0.00 100
20260903225847 56 195 8.0 13.0 0.00 0.00 0.00 100
20260903225647 56 178 9.0 13.0 0.00 0.00 0.00 100
20260903225447 57 134 9.0 13.0 0.00 0.00 0.00 100
20260903225247 57 172 9.0 13.0 0.00 0.00 0.00 100
20260903225047 57 149 9.0 13.0 0.00 0.00 0.00 100
20260903224847 57 160 9.0 13.0 0.00 0.00 0.00 100
20260903224645 56 143 10.0 15.0 0.00 0.00 0.00 100
20260903224445 56 148 10.0 14.0 0.00 0.00 0.00 100
20260903224244 56 169 10.0 15.0 0.00 0.00 0.00 100
20260903224044 56 196 10.0 15.0 0.00 0.00 0.00 100
20260903223844 56 168 8.0 12.0 0.00 0.00 0.00 100
20260903223644 56 169 9.0 14.0 0.00 0.00 0.00 100
20260903223444 56 139 9.0 14.0 0.00 0.00 0.00 100
20260903223244 56 149 8.0 13.0 0.00 0.00 0.00 100
20260903223044 56 103 9.0 11.0 0.00 0.00 0.00 100
20260903222844 56 100 8.0 11.0 0.00 0.00 0.00 100
20260903222642 56 106 7.0 10.0 0.00 0.00 0.00 100
20260903222442 56 101 8.0 11.0 0.00 0.00 0.00 100
20260903222243 56 95 9.0 13.0 0.00 0.00 0.00 100
20260903222042 56 132 9.0 12.0 0.00 0.00 0.00 100
20260903221842 56 143 9.0 12.0 0.00 0.00 0.00 100
20260903221633 56 151 8.0 10.0 0.00 0.00 0.00 100
20260903221433 56 113 8.0 11.0 0.00 0.00 0.00 100
20260903221233 57 118 8.0 12.0 0.00 0.00 0.00 100
20260903221033 57 124 8.0 12.0 0.00 0.00 0.00 100
20260903220833 57 100 8.0 13.0 0.00 0.00 0.00 100
20260903220631 57 139 9.0 13.0 0.00 0.00 0.00 100
20260903220431 57 160 10.0 14.0 0.00 0.00 0.00 100
20260903220231 57 152 10.0 18.0 0.00 0.00 0.00 100
20260903220031 57 137 10.0 18.0 0.00 0.00 0.00 100
20260903215831 57 118 9.0 13.0 0.00 0.00 0.00 100
20260903215631 57 84 8.0 12.0 0.00 0.00 0.00 100
20260903215431 57 108 9.0 13.0 0.00 0.00 0.00 100
20260903215231 57 108 9.0 13.0 0.00 0.00 0.00 100
20260903215031 56 146 9.0 14.0 0.00 0.00 0.00 100
20260903214831 56 148 8.0 12.0 0.00 0.00 0.00 100
20260903214629 56 138 9.0 17.0 0.00 0.00 0.00 100
20260903214429 56 178 9.0 17.0 0.00 0.00 0.00 100
20260903214229 56 169 8.0 12.0 0.00 0.00 0.00 100
20260903214029 56 162 9.0 12.0 0.00 0.00 0.00 100
20260903213829 56 161 9.0 12.0 0.00 0.00 0.00 100
20260903213629 56 175 10.0 13.0 0.00 0.00 0.00 100
20260903213429 56 142 9.0 13.0 0.00 0.00 0.00 100
20260903213229 56 177 8.0 13.0 0.00 0.00 0.00 100
20260903213029 56 190 9.0 13.0 0.00 0.00 0.00 100
20260903212829 56 183 10.0 16.0 0.00 0.00 0.00 100
20260903212627 56 189 10.0 16.0 0.00 0.00 0.00 100
20260903212425 56 159 10.0 15.0 0.00 0.00 0.00 100
20260903212225 56 192 11.0 15.0 0.00 0.00 0.00 100
20260903212025 56 188 10.0 17.0 0.00 0.00 0.00 100
20260903211825 56 166 10.0 14.0 0.00 0.00 0.00 100
20260903211626 56 175 11.0 16.0 0.00 0.00 0.00 100
20260903211426 56 238 10.0 17.0 0.00 0.00 0.00 100
20260903211226 56 199 11.0 19.0 0.00 0.00 0.00 100
20260903211026 56 201 12.0 15.0 0.00 0.00 0.00 100
20260903210826 56 174 12.0 16.0 0.00 0.00 0.00 100
20260903210624 56 180 11.0 16.0 0.00 0.00 0.00 100
20260903210424 56 124 10.0 15.0 0.00 0.00 0.00 100
20260903210224 56 115 9.0 12.0 0.00 0.00 0.00 100
20260903210024 56 168 10.0 14.0 0.00 0.00 0.00 100
20260903205824 56 185 9.0 13.0 0.00 0.00 0.00 100
20260903205624 56 139 9.0 15.0 0.00 0.00 0.00 100
20260903205424 56 111 9.0 12.0 0.00 0.00 0.00 100
20260903205224 56 162 9.0 15.0 0.00 0.00 0.00 100
20260903205024 56 200 9.0 14.0 0.00 0.00 0.00 100
20260903204824 56 143 10.0 14.0 0.00 0.00 0.00 100
20260903204622 56 109 10.0 14.0 0.00 0.00 0.00 100
20260903204421 56 145 10.0 12.0 0.00 0.00 0.00 100
20260903204221 56 161 9.0 12.0 0.00 0.00 0.00 100
20260903204021 56 187 10.0 13.0 0.00 0.00 0.00 100
20260903203821 56 200 11.0 14.0 0.00 0.00 0.00 100
20260903203621 56 181 10.0 14.0 0.00 0.00 0.00 100
20260903203422 56 159 10.0 16.0 0.00 0.00 0.00 100
20260903203222 56 156 9.0 13.0 0.00 0.00 0.00 100
20260903203022 56 118 8.0 13.0 0.00 0.00 0.00 100
20260903202822 56 106 9.0 14.0 0.00 0.00 0.00 100
20260903202620 56 113 10.0 14.0 0.00 0.00 0.00 100
20260903202419 56 166 10.0 16.0 0.00 0.00 0.00 100
20260903202219 56 145 11.0 16.0 0.00 0.00 0.00 100
20260903202019 56 117 10.0 13.0 0.00 0.00 0.00 100
20260903201819 56 130 9.0 13.0 0.00 0.00 0.00 100
20260903201619 56 145 9.0 12.0 0.00 0.00 0.00 100
20260903201419 56 169 10.0 14.0 0.00 0.00 0.00 100
20260903201219 56 145 9.0 14.0 0.00 0.00 0.00 100
20260903201019 56 133 10.0 13.0 0.00 0.00 0.00 100
20260903200819 56 156 10.0 14.0 0.00 0.00 0.00 100
20260903200617 56 139 9.0 12.0 0.00 0.00 0.00 100
20260903200417 56 120 10.0 13.0 0.00 0.00 0.00 100
20260903200217 56 173 9.0 13.0 0.00 0.00 0.00 100
20260903200017 56 120 9.0 13.0 0.00 0.00 0.00 100
20260903195817 56 77 9.0 12.0 0.00 0.00 0.00 100
20260903195617 56 41 8.0 11.0 0.00 0.00 0.00 100
20260903195417 56 196 10.0 13.0 0.00 0.00 0.00 100
20260903195217 56 203 10.0 13.0 0.00 0.00 0.00 100
20260903195017 56 158 9.0 13.0 0.00 0.00 0.00 100
20260903194817 56 148 9.0 13.0 0.00 0.00 0.00 100
20260903194615 56 124 9.0 12.0 0.00 0.00 0.00 100
20260903194415 56 104 10.0 14.0 0.00 0.00 0.00 100
20260903194215 56 99 10.0 14.0 0.00 0.00 0.00 100
20260903194008 56 118 8.0 11.0 0.00 0.00 0.00 100
20260903193808 56 133 8.0 13.0 0.00 0.00 0.00 100
20260903193608 56 120 9.0 13.0 0.00 0.00 0.00 100
20260903193408 56 167 9.0 12.0 0.00 0.00 0.00 100
20260903193208 56 155 8.0 11.0 0.00 0.00 0.00 100
20260903193008 56 162 8.0 12.0 0.00 0.00 0.00 100
20260903192808 56 123 8.0 12.0 0.00 0.00 0.00 100
20260903192606 56 141 8.0 12.0 0.00 0.00 0.00 100
20260903192406 56 122 8.0 12.0 0.00 0.00 0.00 100
20260903192206 56 161 8.0 11.0 0.00 0.00 0.00 100
20260903192005 56 162 8.0 11.0 0.00 0.00 0.00 100
20260903191805 56 159 8.0 11.0 0.00 0.00 0.00 100
20260903191605 56 180 8.0 12.0 0.00 0.00 0.00 100
20260903191405 56 198 9.0 12.0 0.00 0.00 0.00 100
20260903191205 56 165 9.0 13.0 0.00 0.00 0.00 100
20260903191005 56 140 10.0 13.0 0.00 0.00 0.00 100
20260903190806 56 156 10.0 14.0 0.00 0.00 0.00 100
20260903190604 56 161 9.0 14.0 0.00 0.00 0.00 100
20260903190404 56 138 8.0 10.0 0.00 0.00 0.00 100
20260903190204 56 142 9.0 14.0 0.00 0.00 0.00 100
20260903190004 56 147 9.0 14.0 0.00 0.00 0.00 100
20260903185803 56 162 9.0 13.0 0.00 0.00 0.00 100
20260903185603 56 106 8.0 13.0 0.00 0.00 0.00 100
20260903185403 56 123 7.0 11.0 0.00 0.00 0.00 100
20260903185203 56 126 7.0 9.0 0.00 0.00 0.00 100
20260903185003 56 149 9.0 12.0 0.00 0.00 0.00 100
20260903184803 56 146 8.0 12.0 0.00 0.00 0.00 100
20260903184601 56 166 8.0 11.0 0.00 0.00 0.00 100
20260903184401 56 174 8.0 11.0 0.00 0.00 0.00 100
20260903184201 55 180 8.0 11.0 0.00 0.00 0.00 100
20260903184001 56 78 8.0 11.0 0.00 0.00 0.00 100
20260903183801 56 139 7.0 11.0 0.00 0.00 0.00 100
20260903183601 55 128 6.0 9.0 0.00 0.00 0.00 100
20260903183401 56 104 7.0 11.0 0.00 0.00 0.00 100
20260903183201 56 104 8.0 11.0 0.00 0.00 0.00 100
20260903183001 56 94 7.0 10.0 0.00 0.00 0.00 100
20260903182801 56 132 8.0 10.0 0.00 0.00 0.00 100
20260903182559 56 99 7.0 10.0 0.00 0.00 0.00 100
20260903182359 56 109 7.0 10.0 0.00 0.00 0.00 100
20260903182159 56 147 7.0 12.0 0.00 0.00 0.00 100
20260903181959 56 151 8.0 11.0 0.00 0.00 0.00 100
20260903181759 56 149 7.0 10.0 0.00 0.00 0.00 100
20260903181558 56 156 7.0 11.0 0.00 0.00 0.00 100
20260903181358 56 121 8.0 11.0 0.00 0.00 0.00 100
20260903181158 55 96 7.0 9.0 0.00 0.00 0.00 100
20260903180958 55 70 6.0 9.0 0.00 0.00 0.00 100
20260903180758 55 111 6.0 10.0 0.00 0.00 0.00 100
20260903180556 55 138 7.0 9.0 0.00 0.00 0.00 100
20260903180356 55 105 6.0 8.0 0.00 0.00 0.00 100
20260903180156 55 123 5.0 8.0 0.00 0.00 0.00 100
20260903175956 56 122 6.0 8.0 0.00 0.00 0.00 100
20260903175756 56 94 6.0 8.0 0.00 0.00 0.00 100
20260903175600 56 105 6.0 8.0 0.00 0.00 0.00 100
20260903175356 56 86 6.0 9.0 0.00 0.00 0.00 100
20260903175156 56 105 7.0 9.0 0.00 0.00 0.00 100
20260903174956 56 135 7.0 9.0 0.00 0.00 0.00 100
20260903174756 56 125 8.0 11.0 0.00 0.00 0.00 100
20260903174554 56 137 8.0 11.0 0.00 0.00 0.00 100
20260903174354 56 120 8.0 10.0 0.00 0.00 0.00 100
20260903174154 56 135 7.0 10.0 0.00 0.00 0.00 100
20260903173954 56 109 6.0 9.0 0.00 0.00 0.00 100
20260903173754 56 123 7.0 9.0 0.00 0.00 0.00 100
20260903173554 56 147 6.0 9.0 0.00 0.00 0.00 100
20260903173354 56 117 6.0 9.0 0.00 0.00 0.00 100
20260903173154 56 108 6.0 9.0 0.00 0.00 0.00 100
20260903172954 56 156 8.0 11.0 0.00 0.00 0.00 100
20260903172754 56 135 7.0 11.0 0.00 0.00 0.00 100
20260903172552 56 145 6.0 10.0 0.00 0.00 0.00 100
20260903172352 56 100 7.0 10.0 0.00 0.00 0.00 100
20260903172152 56 91 6.0 10.0 0.00 0.00 0.00 100
20260903171953 56 130 7.0 11.0 0.00 0.00 0.00 100
20260903171753 56 106 7.0 9.0 0.00 0.00 0.00 100
20260903171550 56 113 6.0 9.0 0.00 0.00 0.00 100
20260903171350 56 127 7.0 10.0 0.00 0.00 0.00 100
20260903171150 56 115 7.0 10.0 0.00 0.00 0.00 100
20260903170951 56 118 6.0 9.0 0.00 0.00 0.00 100
20260903170751 56 127 6.0 9.0 0.00 0.00 0.00 100
20260903170539 57 144 6.0 9.0 0.00 0.00 0.00 100
20260903170339 57 149 6.0 8.0 0.00 0.00 0.00 100
20260903170139 57 210 6.0 8.0 0.00 0.00 0.00 100
20260903165939 57 243 6.0 8.0 0.00 0.00 0.00 100
20260903165739 57 45 6.0 9.0 0.00 0.00 0.00 100
20260903165539 57 109 6.0 9.0 0.00 0.00 0.00 100
20260903165339 57 138 6.0 9.0 0.00 0.00 0.00 100
20260903165139 57 206 7.0 9.0 0.00 0.00 0.00 100
20260903164939 58 152 7.0 11.0 0.00 0.00 0.00 100
20260903164739 58 157 6.0 9.0 0.00 0.00 0.00 100
20260903164537 58 182 7.0 9.0 0.00 0.00 0.00 100
20260903164337 58 180 7.0 9.0 0.00 0.00 0.00 100
20260903164137 58 153 7.0 10.0 0.00 0.00 0.00 100
20260903163937 58 90 6.0 10.0 0.00 0.00 0.00 100
20260903163736 58 158 5.0 9.0 0.00 0.00 0.00 100
20260903163536 58 152 6.0 9.0 0.00 0.00 0.00 100
20260903163336 58 118 5.0 8.0 0.00 0.00 0.00 100
20260903163136 58 226 6.0 10.0 0.00 0.00 0.00 100
20260903162936 58 175 5.0 7.0 0.00 0.00 0.00 100
20260903162736 57 144 6.0 9.0 0.00 0.00 0.00 100
20260903162535 57 146 6.0 9.0 0.00 0.00 0.00 100
20260903162335 57 121 5.0 7.0 0.00 0.00 0.00 100
20260903162135 57 167 6.0 8.0 0.00 0.00 0.00 100
20260903161934 57 155 5.0 8.0 0.00 0.00 0.00 100
20260903161734 57 140 5.0 6.0 0.00 0.00 0.00 100
20260903161534 57 130 5.0 6.0 0.00 0.00 0.00 100
20260903161334 57 92 5.0 7.0 0.00 0.00 0.00 100
20260903161134 57 110 6.0 7.0 0.00 0.00 0.00 100
20260903160934 57 138 6.0 9.0 0.00 0.00 0.00 100
20260903160734 57 127 6.0 9.0 0.00 0.00 0.00 100
20260903160532 57 157 6.0 8.0 0.00 0.00 0.00 100
20260903160332 57 85 6.0 9.0 0.00 0.00 0.00 100
20260903160132 58 116 5.0 7.0 0.00 0.00 0.00 100
20260903155932 58 125 5.0 9.0 0.00 0.00 0.00 100
20260903155731 58 128 6.0 9.0 0.00 0.00 0.00 100
20260903155532 58 155 6.0 10.0 0.00 0.00 0.00 100
20260903155332 58 156 6.0 10.0 0.00 0.00 0.00 100
20260903155132 58 210 5.0 7.0 0.00 0.00 0.00 100
20260903154932 58 90 5.0 8.0 0.00 0.00 0.00 100
20260903154732 58 124 5.0 8.0 0.00 0.00 0.00 100
20260903154530 58 196 5.0 7.0 0.00 0.00 0.00 100
20260903154330 58 268 4.0 8.0 0.00 0.00 0.00 100
20260903154130 58 213 5.0 8.0 0.00 0.00 0.00 100
20260903153930 58 210 5.0 8.0 0.00 0.00 0.00 100
20260903153729 59 167 6.0 9.0 0.00 0.00 0.00 100
20260903153529 59 186 5.0 8.0 0.00 0.00 0.00 100
20260903153329 59 244 4.0 6.0 0.00 0.00 0.00 100
20260903153129 59 244 4.0 7.0 0.00 0.00 0.00 100
20260903152929 59 141 5.0 8.0 0.00 0.00 0.00 100
20260903152729 59 120 5.0 8.0 0.00 0.00 0.00 100
20260903152527 59 169 5.0 8.0 0.00 0.00 0.00 100
20260903152327 59 195 5.0 8.0 0.00 0.00 0.00 100
20260903152127 59 180 6.0 10.0 0.00 0.00 0.00 100
20260903151927 59 176 6.0 10.0 0.00 0.00 0.00 100
20260903151727 59 108 6.0 8.0 0.00 0.00 0.00 100
20260903151527 59 185 7.0 11.0 0.00 0.00 0.00 100
20260903151327 59 173 6.0 11.0 0.00 0.00 0.00 100
20260903151127 59 230 6.0 8.0 0.00 0.00 0.00 100
20260903150927 59 206 6.0 14.0 0.00 0.00 0.00 100
20260903150727 59 187 6.0 10.0 0.00 0.00 0.00 100
20260903150525 59 116 7.0 10.0 0.00 0.00 0.00 100
20260903150325 59 192 6.0 11.0 0.00 0.00 0.00 100
20260903150125 59 249 6.0 11.0 0.00 0.00 0.00 100
20260903145925 59 167 7.0 11.0 0.00 0.00 0.00 100
20260903145725 59 190 8.0 12.0 0.00 0.00 0.00 100
20260903145524 59 126 8.0 12.0 0.00 0.00 0.00 100
20260903145325 59 149 7.0 10.0 0.00 0.00 0.00 100
20260903145125 59 160 6.0 9.0 0.00 0.00 0.00 100
20260903144925 59 143 6.0 9.0 0.00 0.00 0.00 100
20260903144725 59 193 7.0 10.0 0.00 0.00 0.00 100
20260903144523 59 239 6.0 9.0 0.00 0.00 0.00 100
20260903144323 59 150 7.0 12.0 0.00 0.00 0.00 100
20260903144123 60 135 9.0 15.0 0.00 0.00 0.00 100
20260903143923 60 165 8.0 11.0 0.00 0.00 0.00 100
20260903143723 60 195 6.0 12.0 0.00 0.00 0.00 100
20260903143523 60 209 5.0 12.0 0.00 0.00 0.00 100
20260903143323 60 128 5.0 9.0 0.00 0.00 0.00 100
20260903143123 60 149 8.0 12.0 0.00 0.00 0.00 100
20260903142915 61 203 6.0 10.0 0.00 0.00 0.00 100
20260903142716 61 272 4.0 9.0 0.00 0.00 0.00 100
20260903142514 60 292 5.0 11.0 0.00 0.00 0.00 100
20260903142314 60 266 5.0 11.0 0.00 0.00 0.00 100
20260903142114 60 326 4.0 8.0 0.00 0.00 0.00 100
20260903141914 60 318 3.0 5.0 0.00 0.00 0.00 100
20260903141714 59 240 3.0 9.0 0.00 0.00 0.00 100
20260903141514 59 270 4.0 7.0 0.00 0.00 0.00 100
20260903141314 59 304 4.0 7.0 0.00 0.00 0.00 100
20260903141113 59 319 4.0 6.0 0.00 0.00 0.00 100
20260903140913 59 282 4.0 6.0 0.00 0.00 0.00 100
20260903140713 59 150 6.0 9.0 0.00 0.00 0.00 100
20260903140511 59 133 6.0 9.0 0.00 0.00 0.00 100
20260903140311 59 335 4.0 9.0 0.00 0.00 0.00 100
20260903140111 59 275 4.0 9.0 0.00 0.00 0.00 100
20260903135911 59 237 5.0 9.0 0.00 0.00 0.00 100
20260903135711 59 247 5.0 8.0 0.00 0.00 0.00 100
20260903135511 59 246 5.0 8.0 0.00 0.00 0.00 100
20260903135311 59 246 5.0 8.0 0.00 0.00 0.00 100
20260903135111 59 289 4.0 8.0 0.00 0.00 0.00 100
20260903134911 59 298 3.0 5.0 0.00 0.00 0.00 100
20260903134711 59 303 3.0 6.0 0.00 0.00 0.00 100
20260903134509 59 261 3.0 6.0 0.00 0.00 0.00 100
20260903134309 58 297 3.0 6.0 0.00 0.00 0.00 100
20260903134109 58 224 4.0 6.0 0.00 0.00 0.00 100
20260903133909 58 224 3.0 5.0 0.00 0.00 0.00 100
20260903133710 58 203 4.0 5.0 0.00 0.00 0.00 100
20260903133510 58 182 4.0 5.0 0.00 0.00 0.00 100
20260903133310 57 237 4.0 7.0 0.00 0.00 0.00 100
20260903133110 57 229 4.0 8.0 0.00 0.00 0.00 100
20260903132910 57 207 4.0 6.0 0.00 0.00 0.00 100
20260903132710 57 267 5.0 8.0 0.00 0.00 0.00 100
20260903132508 57 231 4.0 6.0 0.00 0.00 0.00 100
20260903132308 57 232 5.0 7.0 0.00 0.00 0.00 100
20260903132108 57 222 4.0 8.0 0.00 0.00 0.00 100
20260903131908 57 164 5.0 8.0 0.00 0.00 0.00 100
20260903131708 57 195 5.0 8.0 0.00 0.00 0.00 100
20260903131508 57 306 4.0 8.0 0.00 0.00 0.00 100
20260903131308 57 270 3.0 8.0 0.00 0.00 0.00 100
20260903131108 57 256 4.0 8.0 0.00 0.00 0.00 100
20260903130908 57 296 5.0 6.0 0.00 0.00 0.00 100
20260903130708 57 261 4.0 6.0 0.00 0.00 0.00 100
20260903130506 57 221 3.0 6.0 0.00 0.00 0.00 100
20260903130304 57 259 3.0 6.0 0.00 0.00 0.00 100
20260903130104 57 242 3.0 6.0 0.00 0.00 0.00 100
20260903125904 57 245 2.0 6.0 0.00 0.00 0.00 100
20260903125704 58 268 1.0 3.0 0.00 0.00 0.00 100
20260903125504 58 282 2.0 6.0 0.00 0.00 0.00 100
20260903125305 58 299 3.0 7.0 0.00 0.00 0.00 100
20260903125104 58 279 3.0 5.0 0.00 0.00 0.00 100
20260903124904 58 308 2.0 7.0 0.00 0.00 0.00 100
20260903124703 58 257 3.0 7.0 0.00 0.00 0.00 100
20260903124501 58 268 3.0 5.0 0.00 0.00 0.00 100
20260903124302 58 299 3.0 6.0 0.00 0.00 0.00 100
20260903124102 58 351 3.0 7.0 0.00 0.00 0.00 100
20260903123902 58 321 3.0 7.0 0.00 0.00 0.00 100
20260903123702 58 335 2.0 4.0 0.00 0.00 0.00 100
20260903123502 58 330 3.0 7.0 0.00 0.00 0.00 100
20260903123302 58 318 3.0 7.0 0.00 0.00 0.00 100
20260903123102 58 326 3.0 6.0 0.00 0.00 0.00 100
20260903122902 58 332 4.0 7.0 0.00 0.00 0.00 100
20260903122701 58 319 4.0 7.0 0.00 0.00 0.00 100
20260903122459 58 325 3.0 6.0 0.00 0.00 0.00 100
20260903122259 58 323 3.0 7.0 0.00 0.00 0.00 100
20260903122059 58 341 4.0 7.0 0.00 0.00 0.00 100
20260903121859 58 240 2.0 6.0 0.00 0.00 0.00 100
20260903121659 58 233 2.0 7.0 0.00 0.00 0.00 100
20260903121459 58 278 4.0 8.0 0.00 0.00 0.00 100
20260903121300 58 305 3.0 8.0 0.00 0.00 0.00 100
20260903121100 58 274 3.0 6.0 0.00 0.00 0.00 100
20260903120900 59 242 3.0 6.0 0.00 0.00 0.00 100
20260903120700 59 282 4.0 8.0 0.00 0.00 0.00 100
20260903120458 59 270 4.0 8.0 0.00 0.00 0.00 100
20260903120258 59 256 5.0 8.0 0.00 0.00 0.00 100
20260903120058 60 257 7.0 12.0 0.00 0.00 0.00 100
20260903115858 60 149 8.0 12.0 0.00 0.00 0.00 100
20260903115658 60 209 7.0 11.0 0.00 0.00 0.00 100
20260903115449 60 178 7.0 12.0 0.00 0.00 0.00 100
20260903115248 60 154 5.0 7.0 0.00 0.00 0.00 100
20260903115048 60 232 5.0 7.0 0.00 0.00 0.00 100
20260903114848 61 162 5.0 7.0 0.00 0.00 0.00 100
20260903114648 61 119 4.0 6.0 0.00 0.00 0.00 100
20260903114446 61 235 5.0 10.0 0.00 0.00 0.00 100
20260903114246 61 161 8.0 12.0 0.00 0.00 0.00 100
20260903114046 62 214 9.0 13.0 0.00 0.00 0.00 100
20260903113846 62 215 6.0 13.0 0.00 0.00 0.00 100
20260903113646 61 192 5.0 10.0 0.00 0.00 0.00 100
20260903113446 61 209 8.0 10.0 0.00 0.00 0.00 100
20260903113245 60 225 7.0 8.0 0.00 0.00 0.00 100
20260903113045 60 275 4.0 8.0 0.00 0.00 0.00 100
20260903112845 59 246 5.0 8.0 0.00 0.00 0.00 100
20260903112645 59 214 6.0 10.0 0.00 0.00 0.00 100
20260903112444 59 255 5.0 9.0 0.00 0.00 0.00 100
20260903112244 59 289 4.0 8.0 0.00 0.00 0.00 100
20260903112044 59 282 3.0 6.0 0.00 0.00 0.00 100
20260903111844 59 48 3.0 6.0 0.00 0.00 0.00 100
20260903111644 60 286 3.0 5.0 0.00 0.00 0.00 100
20260903111444 61 277 2.0 4.0 0.00 0.00 0.00 100
20260903111244 61 259 3.0 7.0 0.00 0.00 0.00 100
20260903111043 62 286 4.0 6.0 0.00 0.00 0.00 100
20260903110843 63 311 4.0 12.0 0.00 0.00 0.00 100
20260903110643 63 224 4.0 12.0 0.00 0.00 0.00 100
20260903110441 63 318 1.0 4.0 0.00 0.00 0.00 100
20260903110241 62 229 2.0 3.0 0.00 0.00 0.00 100
20260903110041 61 234 3.0 9.0 0.00 0.00 0.00 100
20260903105841 61 243 3.0 7.0 0.00 0.00 0.00 100
20260903105641 61 230 5.0 8.0 0.00 0.00 0.00 100
20260903105441 61 249 5.0 8.0 0.00 0.00 0.00 100
20260903105241 61 268 4.0 7.0 0.00 0.00 0.00 100
20260903105041 61 341 4.0 7.0 0.00 0.00 0.00 100
20260903104841 60 265 4.0 7.0 0.00 0.00 0.00 100
20260903104641 61 265 3.0 8.0 0.00 0.00 0.00 100
20260903104439 61 269 4.0 8.0 0.00 0.00 0.00 100
20260903104239 61 268 4.0 10.0 0.00 0.00 0.00 100
20260903104039 61 243 4.0 7.0 0.00 0.00 0.00 100
20260903103839 61 266 3.0 7.0 0.00 0.00 0.00 100
20260903103639 61 270 4.0 9.0 0.00 0.00 0.00 100
20260903103439 61 270 4.0 9.0 0.00 0.00 0.00 100
20260903103239 61 271 4.0 8.0 0.00 0.00 0.00 100
20260903103039 61 257 3.0 8.0 0.00 0.00 0.00 100
20260903102838 60 232 2.0 4.0 0.00 0.00 0.00 100
20260903102638 60 260 3.0 6.0 0.00 0.00 0.00 100
20260903102436 60 270 4.0 7.0 0.00 0.00 0.00 100
20260903102236 60 330 2.0 5.0 0.00 0.00 0.00 100
20260903102036 60 243 2.0 5.0 0.00 0.00 0.00 100
20260903101836 60 237 3.0 6.0 0.00 0.00 0.00 100
20260903101636 60 312 3.0 6.0 0.00 0.00 0.00 100
20260903101436 60 344 2.0 4.0 0.00 0.00 0.00 100
20260903101236 60 294 2.0 4.0 0.00 0.00 0.00 100
20260903101037 60 357 2.0 4.0 0.00 0.00 0.00 100
20260903100836 60 5 2.0 4.0 0.00 0.00 0.00 100
20260903100636 59 282 2.0 4.0 0.00 0.00 0.00 100
20260903100434 59 186 1.0 2.0 0.00 0.00 0.00 100
20260903100234 59 193 1.0 4.0 0.00 0.00 0.00 100
20260903100034 59 342 2.0 4.0 0.00 0.00 0.00 100
20260903095834 59 3 4.0 7.0 0.00 0.00 0.00 100
20260903095634 59 353 2.0 7.0 0.00 0.00 0.00 100
20260903095434 59 341 3.0 6.0 0.00 0.00 0.00 100
20260903095234 59 343 1.0 6.0 0.00 0.00 0.00 100
20260903095034 59 2 3.0 6.0 0.00 0.00 0.00 100
20260903094834 59 18 3.0 6.0 0.00 0.00 0.00 100
20260903094634 59 343 2.0 5.0 0.00 0.00 0.00 100
20260903094432 59 278 3.0 7.0 0.00 0.00 0.00 100
20260903094232 59 328 3.0 7.0 0.00 0.00 0.00 100
20260903094032 59 347 3.0 6.0 0.00 0.00 0.00 100
20260903093832 59 6 4.0 7.0 0.00 0.00 0.00 100
20260903093632 59 348 2.0 5.0 0.00 0.00 0.00 100
20260903093432 59 317 2.0 5.0 0.00 0.00 0.00 100
20260903093232 59 346 2.0 4.0 0.00 0.00 0.00 100
20260903093032 59 0 1.0 4.0 0.00 0.00 0.00 100
20260903092840 59 352 3.0 5.0 0.00 0.00 0.00 100
20260903092632 59 342 3.0 6.0 0.00 0.00 0.00 100
20260903092430 59 347 2.0 5.0 0.00 0.00 0.00 100
20260903092230 59 286 4.0 7.0 0.00 0.00 0.00 100
20260903092030 59 325 4.0 7.0 0.00 0.00 0.00 100
20260903091823 59 333 4.0 8.0 0.00 0.00 0.00 100
20260903091623 59 325 2.0 7.0 0.00 0.00 0.00 100
20260903091423 59 329 3.0 7.0 0.00 0.00 0.00 100
20260903091223 59 340 3.0 6.0 0.00 0.00 0.00 100
20260903091023 59 353 4.0 6.0 0.00 0.00 0.00 100
20260903090823 59 10 3.0 4.0 0.00 0.00 0.00 100
20260903090623 59 298 2.0 5.0 0.00 0.00 0.00 100
20260903090420 59 332 4.0 6.0 0.00 0.00 0.00 100
20260903090220 59 349 4.0 7.0 0.00 0.00 0.00 100
20260903090021 59 36 3.0 6.0 0.00 0.00 0.00 100